AAL4L KDEN-KCLT

Flight info

Callsign AAL4L
Flight time N/A
Altitude 35000
Route EXTAN7 SHAYK SLN BUM J112 FAM BWG TAZZA FILPZ4
Aircraft A321/M-SDE3FGHIRWY/LB1

Departure

Time 2026-05-04 21:53
Airport Denver International Airport (KDEN)

Arrival

Time N/A
Airport Charlotte Douglas International Airport (KCLT)
Time Latitude Longitude Altitude Speed Heading
2026-05-04 21:13 39.86258 -104.67477 5373 ft 0 kts
2026-05-04 21:42 39.86245 -104.67477 5373 ft 4 kts 358°
2026-05-04 21:42 39.86219 -104.67478 5373 ft 4 kts
2026-05-04 21:42 39.86197 -104.67480 5374 ft 4 kts
2026-05-04 21:43 39.86171 -104.67476 5374 ft 4 kts 340°
2026-05-04 21:43 39.86155 -104.67467 5375 ft 1 kts 331°
2026-05-04 21:43 39.86153 -104.67465 5375 ft 0 kts 331°
2026-05-04 21:46 39.86155 -104.67467 5375 ft 3 kts 331°
2026-05-04 21:46 39.86191 -104.67532 5375 ft 15 kts 283°
2026-05-04 21:46 39.86190 -104.67702 5377 ft 19 kts 270°
2026-05-04 21:46 39.86154 -104.67791 5375 ft 9 kts 220°
2026-05-04 21:47 39.86136 -104.67852 5373 ft 7 kts 265°
2026-05-04 21:47 39.86132 -104.67919 5376 ft 10 kts 266°
2026-05-04 21:47 39.86126 -104.68028 5376 ft 13 kts 266°
2026-05-04 21:47 39.86135 -104.68141 5373 ft 13 kts 277°
2026-05-04 21:48 39.86136 -104.68259 5370 ft 13 kts 270°
2026-05-04 21:48 39.86137 -104.68381 5371 ft 14 kts 270°
2026-05-04 21:48 39.86118 -104.68498 5367 ft 13 kts 217°
2026-05-04 21:48 39.86036 -104.68509 5369 ft 14 kts 179°
2026-05-04 21:49 39.85911 -104.68507 5369 ft 22 kts 179°
2026-05-04 21:49 39.85734 -104.68510 5369 ft 29 kts 181°
2026-05-04 21:49 39.85528 -104.68515 5372 ft 28 kts 181°
2026-05-04 21:49 39.85345 -104.68518 5376 ft 25 kts 181°
2026-05-04 21:50 39.85209 -104.68550 5375 ft 11 kts 235°
2026-05-04 21:50 39.85204 -104.68657 5372 ft 16 kts 267°
2026-05-04 21:50 39.85199 -104.68832 5364 ft 22 kts 269°
2026-05-04 21:50 39.85196 -104.69051 5354 ft 26 kts 269°
2026-05-04 21:51 39.85197 -104.69299 5346 ft 29 kts 272°
2026-05-04 21:51 39.85202 -104.69556 5340 ft 17 kts 270°
2026-05-04 21:51 39.85254 -104.69656 5338 ft 14 kts 354°
2026-05-04 21:51 39.85273 -104.69657 5338 ft 2 kts 359°
2026-05-04 21:52 39.85518 -104.69657 5338 ft 74 kts 360°
2026-05-04 21:52 39.86268 -104.69648 5335 ft 139 kts
2026-05-04 21:52 39.87418 -104.69635 5337 ft 189 kts
2026-05-04 21:52 39.88819 -104.69616 5806 ft 203 kts 357°
2026-05-04 21:53 39.90216 -104.69294 6511 ft 211 kts 24°
2026-05-04 21:53 39.91172 -104.67858 6851 ft 219 kts 70°
2026-05-04 21:53 39.91163 -104.65848 6992 ft 234 kts 111°
2026-05-04 21:53 39.90309 -104.63985 7137 ft 247 kts 125°
2026-05-04 21:54 39.89316 -104.62110 7341 ft 255 kts 125°
2026-05-04 21:54 39.88301 -104.60194 7655 ft 257 kts 125°
2026-05-04 21:54 39.87284 -104.58280 8012 ft 257 kts 125°
2026-05-04 21:54 39.86267 -104.56359 8310 ft 259 kts 124°
2026-05-04 21:55 39.85396 -104.54254 8487 ft 272 kts 115°
2026-05-04 21:55 39.84642 -104.51887 8614 ft 294 kts 111°
2026-05-04 21:55 39.83918 -104.49350 9114 ft 301 kts 110°
2026-05-04 21:55 39.83195 -104.46780 9719 ft 304 kts 110°
2026-05-04 21:56 39.82454 -104.44187 9858 ft 309 kts 111°
2026-05-04 21:56 39.81656 -104.41471 9875 ft 334 kts 111°
2026-05-04 21:56 39.81037 -104.38524 9898 ft 345 kts 93°
2026-05-04 21:56 39.81035 -104.35411 10295 ft 353 kts 90°
2026-05-04 21:57 39.80930 -104.32163 10803 ft 357 kts 95°
2026-05-04 21:57 39.80640 -104.28994 11400 ft 358 kts 98°
2026-05-04 21:57 39.80244 -104.25734 11979 ft 362 kts 99°
2026-05-04 21:57 39.79814 -104.22500 12549 ft 365 kts 100°
2026-05-04 21:58 39.79386 -104.19280 13096 ft 368 kts 99°
2026-05-04 21:58 39.78967 -104.15980 13641 ft 370 kts 99°
2026-05-04 21:58 39.78571 -104.12657 14113 ft 375 kts 98°
2026-05-04 21:58 39.78201 -104.09285 14563 ft 379 kts 98°
2026-05-04 21:59 39.77845 -104.05879 15078 ft 382 kts 98°
2026-05-04 21:59 39.77493 -104.02449 15582 ft 384 kts 98°
2026-05-04 21:59 39.77134 -103.98993 16076 ft 387 kts 98°
2026-05-04 21:59 39.76767 -103.95512 16536 ft 391 kts 98°
2026-05-04 22:00 39.76391 -103.92002 17018 ft 393 kts 99°
2026-05-04 22:00 39.76123 -103.89673 17333 ft 395 kts 99°
2026-05-04 22:00 39.75532 -103.84938 17956 ft 399 kts 101°
2026-05-04 22:00 39.75226 -103.82570 18182 ft 402 kts 101°
2026-05-04 22:01 39.74756 -103.78979 18557 ft 405 kts 101°
2026-05-04 22:01 39.74290 -103.75364 18970 ft 407 kts 100°
2026-05-04 22:01 39.73899 -103.71699 19326 ft 411 kts 98°
2026-05-04 22:01 39.73594 -103.67999 19665 ft 413 kts 96°
2026-05-04 22:02 39.73336 -103.64262 20019 ft 416 kts 95°
2026-05-04 22:02 39.73089 -103.60507 20357 ft 418 kts 96°
2026-05-04 22:02 39.72830 -103.56735 20692 ft 421 kts 96°
2026-05-04 22:02 39.72554 -103.52937 21034 ft 423 kts 96°
2026-05-04 22:03 39.72259 -103.49128 21369 ft 426 kts 96°
2026-05-04 22:03 39.71950 -103.45284 21655 ft 429 kts 96°
2026-05-04 22:03 39.71634 -103.41415 21987 ft 432 kts 96°
2026-05-04 22:03 39.71313 -103.37523 22325 ft 434 kts 96°
2026-05-04 22:04 39.70988 -103.33618 22629 ft 437 kts 96°
2026-05-04 22:04 39.70660 -103.29678 22958 ft 439 kts 97°
2026-05-04 22:04 39.70331 -103.25725 23283 ft 442 kts 97°
2026-05-04 22:04 39.70003 -103.21747 23550 ft 445 kts 97°
2026-05-04 22:05 39.69674 -103.17737 23796 ft 448 kts 96°
2026-05-04 22:05 39.69343 -103.13706 24051 ft 451 kts 97°
2026-05-04 22:05 39.69006 -103.09650 24316 ft 453 kts 96°
2026-05-04 22:05 39.68665 -103.05571 24564 ft 456 kts 96°
2026-05-04 22:06 39.68323 -103.01512 24817 ft 459 kts 96°
2026-05-04 22:06 39.67971 -102.97380 25074 ft 462 kts 96°
2026-05-04 22:06 39.67614 -102.93216 25327 ft 465 kts 96°
2026-05-04 22:06 39.67258 -102.89032 25564 ft 468 kts 96°
2026-05-04 22:07 39.66899 -102.84817 25801 ft 471 kts 96°
2026-05-04 22:07 39.66541 -102.80579 26028 ft 474 kts 96°
2026-05-04 22:07 39.66179 -102.76320 26279 ft 477 kts 96°
2026-05-04 22:07 39.65808 -102.72030 26485 ft 480 kts 96°
2026-05-04 22:08 39.65431 -102.67708 26718 ft 483 kts 96°
2026-05-04 22:08 39.65049 -102.63363 26954 ft 486 kts 96°
2026-05-04 22:08 39.64663 -102.58985 27194 ft 488 kts 96°
2026-05-04 22:08 39.64275 -102.54604 27429 ft 491 kts 96°
2026-05-04 22:09 39.63883 -102.50183 27662 ft 494 kts 96°
2026-05-04 22:09 39.63487 -102.45751 27895 ft 496 kts 96°
2026-05-04 22:09 39.63089 -102.41292 28128 ft 499 kts 96°
2026-05-04 22:09 39.62689 -102.36827 28485 ft 498 kts 96°
2026-05-04 22:10 39.62289 -102.32379 28811 ft 498 kts 96°
2026-05-04 22:10 39.61886 -102.27915 29060 ft 499 kts 96°
2026-05-04 22:10 39.61485 -102.23490 29272 ft 501 kts 96°
2026-05-04 22:10 39.61073 -102.18994 29477 ft 503 kts 96°
2026-05-04 22:11 39.60658 -102.14474 29621 ft 507 kts 96°
2026-05-04 22:11 39.60238 -102.09920 29760 ft 510 kts 96°
2026-05-04 22:11 39.59812 -102.05340 29887 ft 514 kts 96°
2026-05-04 22:11 39.59381 -102.00716 30024 ft 517 kts 96°
2026-05-04 22:12 39.58971 -101.96066 30137 ft 521 kts 95°
2026-05-04 22:12 39.58597 -101.91385 30265 ft 523 kts 94°
2026-05-04 22:12 39.58245 -101.86679 30388 ft 526 kts 94°
2026-05-04 22:12 39.57895 -101.81957 30536 ft 527 kts 94°
2026-05-04 22:13 39.57535 -101.77213 30693 ft 529 kts 95°
2026-05-04 22:13 39.57165 -101.72474 30863 ft 530 kts 95°
2026-05-04 22:13 39.56781 -101.67715 31027 ft 531 kts 95°
2026-05-04 22:13 39.56390 -101.62966 31283 ft 530 kts 95°
2026-05-04 22:14 39.55995 -101.58218 31499 ft 530 kts 95°
2026-05-04 22:14 39.55599 -101.53465 31664 ft 531 kts 95°
2026-05-04 22:14 39.55203 -101.48697 31812 ft 532 kts 95°
2026-05-04 22:14 39.54804 -101.43926 31976 ft 533 kts 95°
2026-05-04 22:15 39.54359 -101.39149 32119 ft 535 kts 97°
2026-05-04 22:15 39.53790 -101.34375 32271 ft 537 kts 99°
2026-05-04 22:15 39.53105 -101.29618 32456 ft 538 kts 101°
2026-05-04 22:15 39.52347 -101.24884 32734 ft 537 kts 102°
2026-05-04 22:16 39.51562 -101.20152 32918 ft 538 kts 102°
2026-05-04 22:16 39.50786 -101.15407 33071 ft 539 kts 102°
2026-05-04 22:16 39.50037 -101.10648 33225 ft 541 kts 101°
2026-05-04 22:16 39.49312 -101.05856 33350 ft 542 kts 101°
2026-05-04 22:17 39.48607 -101.01056 33532 ft 543 kts 101°
2026-05-04 22:17 39.47908 -100.96256 33693 ft 544 kts 101°
2026-05-04 22:17 39.47212 -100.91499 33822 ft 545 kts 101°
2026-05-04 22:17 39.46498 -100.86686 33955 ft 546 kts 101°
2026-05-04 22:18 39.45771 -100.81864 34082 ft 546 kts 101°
2026-05-04 22:18 39.45033 -100.77034 34209 ft 547 kts 102°
2026-05-04 22:18 39.44291 -100.72199 34333 ft 548 kts 102°
2026-05-04 22:18 39.43547 -100.67361 34469 ft 548 kts 102°
2026-05-04 22:19 39.42803 -100.62529 34610 ft 548 kts 102°
2026-05-04 22:19 39.41319 -100.52878 34674 ft 545 kts 101°
2026-05-04 22:20 39.39840 -100.43271 34673 ft 544 kts 102°
2026-05-04 22:20 39.38353 -100.33676 34676 ft 544 kts 102°
2026-05-04 22:21 39.36846 -100.24097 34677 ft 544 kts 102°
2026-05-04 22:21 39.35327 -100.14519 34652 ft 544 kts 102°
2026-05-04 22:22 39.33813 -100.04937 34667 ft 545 kts 102°
2026-05-04 22:22 39.32299 -99.95351 34672 ft 545 kts 102°
2026-05-04 22:23 39.30764 -99.85761 34672 ft 545 kts 102°
2026-05-04 22:23 39.29221 -99.76179 34695 ft 545 kts 102°
2026-05-04 22:24 39.27671 -99.66595 34697 ft 545 kts 102°
2026-05-04 22:24 39.26106 -99.57027 34698 ft 545 kts 102°
2026-05-04 22:25 39.24541 -99.47473 34686 ft 545 kts 102°
2026-05-04 22:25 39.22965 -99.37903 34696 ft 544 kts 102°
2026-05-04 22:26 39.21389 -99.28371 34684 ft 544 kts 102°
2026-05-04 22:26 39.19805 -99.18827 34660 ft 544 kts 102°
2026-05-04 22:27 39.18222 -99.09343 34658 ft 545 kts 102°
2026-05-04 22:27 39.16602 -98.99742 34690 ft 545 kts 102°
2026-05-04 22:28 39.14992 -98.90270 34690 ft 545 kts 102°
2026-05-04 22:28 39.13376 -98.80735 34697 ft 545 kts 102°
2026-05-04 22:29 39.11753 -98.71207 34699 ft 545 kts 102°
2026-05-04 22:29 39.10118 -98.61685 34700 ft 544 kts 102°
2026-05-04 22:30 39.08480 -98.52180 34693 ft 544 kts 102°
2026-05-04 22:30 39.06837 -98.42676 34688 ft 544 kts 102°
2026-05-04 22:31 39.05182 -98.33177 34662 ft 543 kts 102°
2026-05-04 22:31 39.03514 -98.23692 34668 ft 544 kts 102°
2026-05-04 22:32 39.01838 -98.14202 34665 ft 544 kts 102°
2026-05-04 22:32 39.00159 -98.04720 34679 ft 544 kts 102°
2026-05-04 22:33 38.98468 -97.95233 34697 ft 544 kts 102°
2026-05-04 22:33 38.96777 -97.85752 34698 ft 544 kts 102°
2026-05-04 22:34 38.95092 -97.76347 34702 ft 543 kts 102°
2026-05-04 22:34 38.93388 -97.66893 34691 ft 543 kts 102°
2026-05-04 22:35 38.91649 -97.57454 34703 ft 543 kts 103°
2026-05-04 22:35 38.89818 -97.48039 34683 ft 544 kts 104°
2026-05-04 22:36 38.87949 -97.38634 34634 ft 544 kts 104°
2026-05-04 22:36 38.86088 -97.29190 34631 ft 546 kts 104°
2026-05-04 22:37 38.84234 -97.19715 34635 ft 547 kts 103°
2026-05-04 22:37 38.82376 -97.10246 34648 ft 548 kts 104°
2026-05-04 22:38 38.80488 -97.00771 34645 ft 549 kts 104°
2026-05-04 22:38 38.78584 -96.91305 34647 ft 549 kts 104°
2026-05-04 22:39 38.76683 -96.81833 34691 ft 549 kts 104°
2026-05-04 22:39 38.74776 -96.72363 34686 ft 548 kts 104°
2026-05-04 22:40 38.72869 -96.62916 34679 ft 548 kts 104°
2026-05-04 22:40 38.70950 -96.53484 34644 ft 547 kts 104°
2026-05-04 22:41 38.69024 -96.44047 34666 ft 548 kts 104°
2026-05-04 22:41 38.67100 -96.34667 34682 ft 548 kts 104°
2026-05-04 22:42 38.65153 -96.25213 34672 ft 548 kts 104°
2026-05-04 22:42 38.63198 -96.15786 34690 ft 548 kts 104°
2026-05-04 22:43 38.61239 -96.06358 34706 ft 548 kts 104°
2026-05-04 22:43 38.59269 -95.96936 34695 ft 548 kts 104°
2026-05-04 22:44 38.57300 -95.87536 34706 ft 547 kts 104°
2026-05-04 22:44 38.55327 -95.78153 34704 ft 547 kts 104°
2026-05-04 22:45 38.53344 -95.68821 34719 ft 547 kts 104°
2026-05-04 22:45 38.50354 -95.54773 34679 ft 546 kts 104°
2026-05-04 22:46 38.48364 -95.45408 34691 ft 546 kts 104°
2026-05-04 22:46 38.46352 -95.36055 34687 ft 546 kts 104°
2026-05-04 22:47 38.44676 -95.28294 34691 ft 546 kts 104°
2026-05-04 22:47 38.42658 -95.18962 34700 ft 546 kts 104°
2026-05-04 22:48 38.40630 -95.09623 34701 ft 546 kts 104°
2026-05-04 22:48 38.38600 -95.00296 34705 ft 546 kts 104°
2026-05-04 22:49 38.36564 -94.90992 34737 ft 545 kts 104°
2026-05-04 22:49 38.34517 -94.81690 34735 ft 544 kts 104°
2026-05-04 22:50 38.32459 -94.72422 34739 ft 543 kts 105°
2026-05-04 22:50 38.30419 -94.63228 34731 ft 543 kts 105°
2026-05-04 22:51 38.28362 -94.53990 34750 ft 542 kts 105°
2026-05-04 22:51 38.26698 -94.44670 34732 ft 539 kts 96°
2026-05-04 22:52 38.25562 -94.35242 34725 ft 539 kts 96°
2026-05-04 22:52 38.24397 -94.25835 34722 ft 538 kts 96°
2026-05-04 22:53 38.23222 -94.16432 34730 ft 538 kts 96°
2026-05-04 22:53 38.22050 -94.07038 34723 ft 537 kts 96°
2026-05-04 22:54 38.20876 -93.97654 34722 ft 537 kts 96°
2026-05-04 22:54 38.19691 -93.88286 34720 ft 536 kts 96°
2026-05-04 22:55 38.18500 -93.78926 34734 ft 536 kts 96°
2026-05-04 22:55 38.17303 -93.69584 34739 ft 535 kts 96°
2026-05-04 22:56 38.16103 -93.60314 34732 ft 535 kts 97°
2026-05-04 22:56 38.14893 -93.50984 34732 ft 535 kts 97°
2026-05-04 22:57 38.13677 -93.41671 34692 ft 534 kts 96°
2026-05-04 22:57 38.12449 -93.32354 34700 ft 536 kts 96°
2026-05-04 22:58 38.11211 -93.23006 34702 ft 537 kts 96°
2026-05-04 22:58 38.09967 -93.13660 34709 ft 537 kts 96°
2026-05-04 22:59 38.08715 -93.04299 34734 ft 538 kts 96°
2026-05-04 22:59 38.07459 -92.94952 34747 ft 536 kts 96°
2026-05-04 23:00 38.06195 -92.85631 34745 ft 536 kts 96°
2026-05-04 23:00 38.04921 -92.76321 34773 ft 535 kts 97°
2026-05-04 23:01 38.03633 -92.67025 34777 ft 535 kts 97°
2026-05-04 23:01 38.02347 -92.57742 34745 ft 533 kts 97°
2026-05-04 23:02 38.01069 -92.48483 34743 ft 532 kts 97°
2026-05-04 23:02 37.99781 -92.39247 34733 ft 531 kts 97°
2026-05-04 23:03 37.98478 -92.30036 34728 ft 531 kts 97°
2026-05-04 23:03 37.97163 -92.20841 34739 ft 529 kts 97°
2026-05-04 23:04 37.95855 -92.11670 34754 ft 528 kts 97°
2026-05-04 23:04 37.94550 -92.02517 34750 ft 528 kts 97°
2026-05-04 23:05 37.93234 -91.93370 34714 ft 527 kts 97°
2026-05-04 23:05 37.91919 -91.84303 34736 ft 526 kts 97°
2026-05-04 23:06 37.90590 -91.75212 34756 ft 524 kts 97°
2026-05-04 23:06 37.89252 -91.66088 34771 ft 523 kts 97°
2026-05-04 23:07 37.87925 -91.57103 34767 ft 522 kts 97°
2026-05-04 23:07 37.86581 -91.48070 34790 ft 521 kts 98°
2026-05-04 23:08 37.85238 -91.39057 34794 ft 520 kts 97°
2026-05-04 23:08 37.83904 -91.30078 34798 ft 519 kts 98°
2026-05-04 23:09 37.82559 -91.21120 34793 ft 518 kts 98°
2026-05-04 23:09 37.81202 -91.12182 34808 ft 517 kts 98°
2026-05-04 23:10 37.79840 -91.03272 34825 ft 514 kts 98°
2026-05-04 23:10 37.78477 -90.94413 34820 ft 512 kts 98°
2026-05-04 23:11 37.77118 -90.85591 34820 ft 511 kts 98°
2026-05-04 23:11 37.75764 -90.76784 34821 ft 510 kts 98°
2026-05-04 23:12 37.74397 -90.68009 34836 ft 508 kts 99°
2026-05-04 23:12 37.73029 -90.59281 34835 ft 505 kts 99°
2026-05-04 23:13 37.71665 -90.50594 34831 ft 503 kts 99°
2026-05-04 23:13 37.70299 -90.41920 34777 ft 505 kts 99°
2026-05-04 23:14 37.68927 -90.33266 34801 ft 506 kts 101°
2026-05-04 23:14 37.67534 -90.24570 34811 ft 505 kts 101°
2026-05-04 23:15 37.66110 -90.15893 34809 ft 504 kts 101°
2026-05-04 23:15 37.64636 -90.07238 34807 ft 504 kts 101°
2026-05-04 23:16 37.63149 -89.98603 34804 ft 503 kts 102°
2026-05-04 23:16 37.61672 -89.89984 34811 ft 502 kts 101°
2026-05-04 23:17 37.60199 -89.81372 34810 ft 502 kts 102°
2026-05-04 23:17 37.58709 -89.72785 34811 ft 501 kts 102°
2026-05-04 23:18 37.57224 -89.64246 34817 ft 501 kts 102°
2026-05-04 23:18 37.55735 -89.55669 34817 ft 501 kts 102°
2026-05-04 23:19 37.54242 -89.47096 34819 ft 501 kts 102°
2026-05-04 23:19 37.52737 -89.38530 34819 ft 501 kts 102°
2026-05-04 23:20 37.51222 -89.29975 34821 ft 501 kts 102°
2026-05-04 23:20 37.49703 -89.21409 34839 ft 501 kts 102°
2026-05-04 23:21 37.48184 -89.12858 34839 ft 500 kts 102°
2026-05-04 23:21 37.46661 -89.04311 34830 ft 500 kts 102°
2026-05-04 23:22 37.45124 -88.95779 34835 ft 500 kts 102°